• In Denmark
  • List of Countries
  • For 7 days
  • Water Temperature
  • Satellite Maps
  • Weather Map
  • Weather Widgets
  • user-avatar
    Login

    Hourly Weather Bolek

    Today, 16 October, Tuesday

    Time Temperature Precipitation Wind Pressure Humidity
    00:00 +7°C° 0.4 mm 4 mps 686 mmHg 66%
    01:00 +6°C° 0.4 mm 4 mps 686 mmHg 69%
    02:00 +7°C° 0.4 mm 3 mps 687 mmHg 72%
    03:00 +5°C° 0.8 mm 3 mps 687 mmHg 76%
    04:00 +5°C° 0.8 mm 3 mps 688 mmHg 79%
    05:00 +5°C° 0.8 mm 3 mps 688 mmHg 83%
    06:00 +4°C° 0.6 mm 3 mps 688 mmHg 83%
    07:00 +4°C° 0.6 mm 3 mps 688 mmHg 83%
    08:00 +4°C° 0.6 mm 3 mps 689 mmHg 83%
    09:00 +4°C° 0.4 mm 3 mps 689 mmHg 80%
    10:00 +5°C° 0.4 mm 2 mps 689 mmHg 77%
    11:00 +6°C° 0.4 mm 2 mps 689 mmHg 73%
    12:00 +6°C° 0.4 mm 2 mps 688 mmHg 71%
    13:00 +6°C° 0.4 mm 2 mps 688 mmHg 69%
    14:00 +6°C° 0.4 mm 2 mps 688 mmHg 67%
    15:00 +6°C° 0.4 mm 2 mps 688 mmHg 69%
    16:00 +5°C° 0.4 mm 2 mps 689 mmHg 71%
    17:00 +4°C° 0.4 mm 2 mps 689 mmHg 74%
    18:00 +3°C° 0.5 mm 3 mps 689 mmHg 76%
    19:00 +2°C° 0.5 mm 3 mps 690 mmHg 79%
    20:00 +2°C° 0.5 mm 3 mps 690 mmHg 81%
    21:00 +1°C° 0.6 mm 3 mps 691 mmHg 83%
    22:00 0°C° 0.6 mm 4 mps 691 mmHg 85%
    23:00 -1°C° 0.6 mm 4 mps 691 mmHg 87%

    Tomorrow, 17 October, Wednesday

    Time Temperature Precipitation Wind Pressure Humidity
    00:00 -1°C° 0.8 mm 4 mps 691 mmHg 87%
    01:00 -1°C° 0.8 mm 4 mps 692 mmHg 87%
    02:00 -2°C° 0.8 mm 4 mps 692 mmHg 87%
    03:00 -2°C° 0.5 mm 4 mps 693 mmHg 87%
    04:00 -2°C° 0.5 mm 4 mps 693 mmHg 87%
    05:00 -2°C° 0.5 mm 4 mps 694 mmHg 87%
    06:00 -1°C° 0.4 mm 3 mps 695 mmHg 86%
    07:00 -1°C° 0.4 mm 3 mps 695 mmHg 86%
    08:00 -1°C° 0.4 mm 3 mps 696 mmHg 85%
    09:00 +1°C° 0.3 mm 2 mps 696 mmHg 85%
    10:00 +1°C° 0.3 mm 2 mps 696 mmHg 84%
    11:00 +1°C° 0.3 mm 2 mps 696 mmHg 83%
    12:00 +2°C° 0.3 mm 2 mps 696 mmHg 82%
    13:00 +1°C° 0.3 mm 3 mps 696 mmHg 81%
    14:00 +1°C° 0.3 mm 3 mps 696 mmHg 79%
    15:00 0°C° 0.2 mm 3 mps 696 mmHg 79%
    16:00 0°C° 0.2 mm 3 mps 697 mmHg 78%
    17:00 0°C° 0.2 mm 3 mps 697 mmHg 77%
    18:00 -1°C° 0.1 mm 3 mps 697 mmHg 76%
    19:00 -1°C° 0.1 mm 3 mps 698 mmHg 75%
    20:00 -1°C° 0.1 mm 2 mps 698 mmHg 73%
    21:00 -1°C° 0.2 mm 2 mps 698 mmHg 72%
    22:00 -2°C° 0.2 mm 2 mps 699 mmHg 71%
    23:00 0°C° 0.2 mm 1 mps 699 mmHg 70%

    Day after tomorrow, 18 October, Thursday

    Time Temperature Precipitation Wind Pressure Humidity
    00:00 -2°C° 0.2 mm 2 mps 698 mmHg 70%
    01:00 -3°C° 0.2 mm 2 mps 698 mmHg 69%
    02:00 -3°C° 0.2 mm 2 mps 698 mmHg 69%
    03:00 -3°C° 0.1 mm 2 mps 698 mmHg 68%
    04:00 -4°C° 0.1 mm 3 mps 698 mmHg 67%
    05:00 -4°C° 0.1 mm 3 mps 698 mmHg 66%
    06:00 -2°C° 0 mm 3 mps 698 mmHg 64%
    07:00 -1°C° 0 mm 4 mps 698 mmHg 62%
    08:00 0°C° 0 mm 4 mps 697 mmHg 60%
    09:00 +1°C° 0 mm 4 mps 697 mmHg 56%
    10:00 +3°C° 0 mm 5 mps 696 mmHg 52%
    11:00 +5°C° 0 mm 5 mps 695 mmHg 47%
    12:00 +6°C° 0 mm 5 mps 694 mmHg 48%
    13:00 +6°C° 0 mm 5 mps 694 mmHg 49%
    14:00 +7°C° 0 mm 5 mps 693 mmHg 50%
    15:00 +6°C° 0 mm 5 mps 693 mmHg 53%
    16:00 +5°C° 0 mm 5 mps 693 mmHg 56%
    17:00 +3°C° 0 mm 5 mps 693 mmHg 59%
    18:00 +3°C° 0.1 mm 5 mps 693 mmHg 59%
    19:00 +3°C° 0.1 mm 5 mps 693 mmHg 59%
    20:00 +3°C° 0.1 mm 5 mps 693 mmHg 59%
    21:00 +3°C° 0.1 mm 5 mps 693 mmHg 59%
    22:00 +3°C° 0.1 mm 5 mps 693 mmHg 59%
    23:00 +3°C° 0.1 mm 5 mps 693 mmHg 59%

    19 October, Friday

    Time Temperature Precipitation Wind Pressure Humidity
    00:00 +4°C° 0.1 mm 4 mps 692 mmHg 60%
    01:00 +3°C° 0.1 mm 4 mps 692 mmHg 60%
    02:00 +3°C° 0.1 mm 4 mps 692 mmHg 61%
    03:00 +3°C° 0.1 mm 4 mps 692 mmHg 61%
    04:00 +3°C° 0.1 mm 3 mps 692 mmHg 62%
    05:00 +3°C° 0.1 mm 3 mps 692 mmHg 63%
    06:00 +3°C° 0.1 mm 3 mps 692 mmHg 62%
    07:00 +4°C° 0.1 mm 3 mps 692 mmHg 60%
    08:00 +4°C° 0.1 mm 3 mps 692 mmHg 59%
    09:00 +5°C° 0.2 mm 3 mps 692 mmHg 57%
    10:00 +7°C° 0.2 mm 3 mps 692 mmHg 55%
    11:00 +7°C° 0.2 mm 3 mps 692 mmHg 53%
    12:00 +8°C° 0.2 mm 2 mps 692 mmHg 53%
    13:00 +8°C° 0.2 mm 2 mps 692 mmHg 53%
    14:00 +8°C° 0.2 mm 2 mps 692 mmHg 53%
    15:00 +7°C° 0.2 mm 2 mps 692 mmHg 55%
    16:00 +7°C° 0.2 mm 2 mps 692 mmHg 57%
    17:00 +7°C° 0.2 mm 1 mps 693 mmHg 59%
    18:00 +6°C° 0.4 mm 1 mps 693 mmHg 62%
    19:00 +5°C° 0.4 mm 2 mps 693 mmHg 65%
    20:00 +4°C° 0.4 mm 2 mps 694 mmHg 69%
    21:00 +4°C° 0.4 mm 2 mps 694 mmHg 69%
    22:00 +4°C° 0.4 mm 2 mps 694 mmHg 69%
    23:00 +4°C° 0.4 mm 2 mps 695 mmHg 69%

    20 October, Saturday

    Time Temperature Precipitation Wind Pressure Humidity
    00:00 +4°C° 0.4 mm 2 mps 695 mmHg 68%
    01:00 +4°C° 0.4 mm 2 mps 695 mmHg 67%
    02:00 +3°C° 0.4 mm 2 mps 695 mmHg 66%
    03:00 +3°C° 0.2 mm 2 mps 696 mmHg 65%
    04:00 +3°C° 0.2 mm 2 mps 696 mmHg 65%
    05:00 +3°C° 0.2 mm 2 mps 696 mmHg 64%
    06:00 +4°C° 0.1 mm 2 mps 696 mmHg 63%
    07:00 +5°C° 0.1 mm 2 mps 697 mmHg 62%
    08:00 +7°C° 0.1 mm 1 mps 697 mmHg 61%
    09:00 +8°C° 0.1 mm 1 mps 697 mmHg 59%
    10:00 +9°C° 0.1 mm 1 mps 697 mmHg 56%
    11:00 +10°C° 0.1 mm 1 mps 697 mmHg 54%
    12:00 +10°C° 0.1 mm 1 mps 697 mmHg 53%
    13:00 +11°C° 0.1 mm 1 mps 697 mmHg 53%
    14:00 +11°C° 0.1 mm 1 mps 696 mmHg 52%
    15:00 +10°C° 0.1 mm 1 mps 697 mmHg 54%
    16:00 +9°C° 0.1 mm 1 mps 697 mmHg 56%
    17:00 +7°C° 0.1 mm 2 mps 697 mmHg 58%
    18:00 +7°C° 0.1 mm 2 mps 697 mmHg 59%
    19:00 +7°C° 0.1 mm 2 mps 698 mmHg 59%
    20:00 +7°C° 0.1 mm 2 mps 698 mmHg 60%
    21:00 +7°C° 0.1 mm 2 mps 698 mmHg 61%
    22:00 +6°C° 0.1 mm 2 mps 698 mmHg 61%
    23:00 +5°C° 0.1 mm 3 mps 698 mmHg 62%

    21 October, Sunday

    Time Temperature Precipitation Wind Pressure Humidity
    00:00 +5°C° 0.1 mm 3 mps 698 mmHg 63%
    01:00 +5°C° 0.1 mm 3 mps 697 mmHg 64%
    02:00 +5°C° 0.1 mm 3 mps 697 mmHg 65%
    03:00 +5°C° 0 mm 3 mps 697 mmHg 65%
    04:00 +4°C° 0 mm 3 mps 697 mmHg 66%
    05:00 +4°C° 0 mm 3 mps 698 mmHg 66%
    06:00 +5°C° 0 mm 4 mps 698 mmHg 64%
    07:00 +6°C° 0 mm 4 mps 698 mmHg 63%
    08:00 +7°C° 0 mm 4 mps 698 mmHg 61%
    09:00 +8°C° 0 mm 4 mps 697 mmHg 59%
    10:00 +9°C° 0 mm 5 mps 697 mmHg 57%
    11:00 +10°C° 0 mm 5 mps 697 mmHg 56%
    12:00 +10°C° 0 mm 5 mps 696 mmHg 55%
    13:00 +12°C° 0 mm 5 mps 696 mmHg 54%
    14:00 +12°C° 0 mm 5 mps 696 mmHg 54%
    15:00 +11°C° 0 mm 4 mps 696 mmHg 56%
    16:00 +10°C° 0 mm 4 mps 696 mmHg 57%
    17:00 +8°C° 0 mm 4 mps 696 mmHg 59%
    18:00 +7°C° 0 mm 4 mps 696 mmHg 59%
    19:00 +7°C° 0 mm 4 mps 696 mmHg 58%
    20:00 +6°C° 0 mm 4 mps 696 mmHg 58%
    21:00 +6°C° 0 mm 4 mps 696 mmHg 57%
    22:00 +6°C° 0 mm 4 mps 696 mmHg 55%
    23:00 +6°C° 0 mm 4 mps 696 mmHg 54%
    Show more